Regional Weather Roundup
Issued by NWS

Home | Current Version | Previous Version | Text Only | Print | Product List | Glossary Off
Versions: 1 2 3 4 5 6 7 8 9 10 11 12 13 14 15 16 17 18 19 20 21 22 23 24 25 26 27 28 29 30 31 32 33 34 35 36 37 38 39 40 41 42 43 44 45 46 47 48 49 50

000
ASUS43 KOAX 010602
RWRNE

WEATHER ROUNDUP FOR NEBRASKA
NATIONAL WEATHER SERVICE OMAHA NE
100 AM CDT WED OCT 01 2014

NOTES: SATELLITE DATA IS BEING USED TO AUGMENT CLOUD COVER ABOVE
       12000 FEET.
       "FAIR" INDICATES FEW OR NO CLOUDS BELOW 12,000 FEET WITH NO
       SIGNIFICANT WEATHER AND/OR OBSTRUCTIONS TO VISIBILITY.

  * THESE STATIONS DO NOT REPORT WEATHER SUCH AS RAIN...SNOW OR FOG.

NEZ001>004-019>022-054>056-010700-
NEBRASKA PANHANDLE

CITY           SKY/WX    TMP DP  RH WIND       PRES   REMARKS
SCOTTSBLUFF    CLOUDY    57  45  64 W9        29.79S
6HR MIN TEMP:  57; 6HR MAX TEMP:  65;

ALLIANCE       CLOUDY    50  45  83 SW8       29.77S
6HR MIN TEMP:  50; 6HR MAX TEMP:  64;

CHADRON        MOCLDY    50  47  89 SW8       29.75S
6HR MIN TEMP:  50; 6HR MAX TEMP:  64; 6HR PCP: TRACE;

KIMBALL        MOCLDY    53  42  66 W9        29.83S
SIDNEY         MOCLDY    57  41  55 W9        29.83S
6HR MIN TEMP:  55; 6HR MAX TEMP:  65; 6HR PCP: TRACE;

$$

NEZ057>060-069>072-079>082-010700-
SOUTHWEST NEBRASKA

CITY           SKY/WX    TMP DP  RH WIND       PRES   REMARKS
NORTH PLATTE   CLOUDY    56  50  80 NW5       29.75S
6HR MIN TEMP:  56; 6HR MAX TEMP:  69;

IMPERIAL       MOCLDY    57  46  66 W5        29.78R
6HR MIN TEMP:  57; 6HR MAX TEMP:  70;

LEXINGTON      MOCLDY    58  56  95 SE7       29.74S FOG
MCCOOK         CLOUDY    59  53  80 E5        29.75S
6HR MIN TEMP:  59; 6HR MAX TEMP:  74;

OGALLALA       CLOUDY    57  52  84 CALM      29.77F
$$

NEZ005>010-023>029-035>040-094-010700-
NORTH CENTRAL NEBRASKA

CITY           SKY/WX    TMP DP  RH WIND       PRES   REMARKS
VALENTINE      CLOUDY    50  46  86 SW6       29.71S
6HR MIN TEMP:  50; 6HR MAX TEMP:  70;

AINSWORTH      CLOUDY    61  45  54 SW7       29.71S
BROKEN BOW     MOCLDY    54  51  90 CALM      29.73S
6HR MIN TEMP:  53; 6HR MAX TEMP:  73;

O`NEILL        MOCLDY    62  62  99 SE10G17   29.73S FOG
ORD            FOG       61  60  97 SE8       29.72S VSB 1
6HR MIN TEMP:  59; 6HR MAX TEMP:  70;

THEDFORD       CLOUDY    58  49  71 CALM      29.74S
$$

NEZ041-046>049-061>064-073>077-083>087-010700-
SOUTH CENTRAL NEBRASKA

CITY           SKY/WX    TMP DP  RH WIND       PRES   REMARKS
GRAND ISLAND   CLOUDY    63  62  97 SE8       29.73F FOG
6HR MIN TEMP:  62; 6HR MAX TEMP:  69;

AURORA         MOCLDY    62  62 100 CALM      29.72F
HASTINGS       CLOUDY    63  60  90 SE6       29.72F
6HR MIN TEMP:  62; 6HR MAX TEMP:  70;

HEBRON         CLOUDY    64  62  91 NE5       29.72F
KEARNEY *      CLOUDY    61  61 100 E7        29.74S VSB 3/4
YORK           CLOUDY    63  59  88 SE6       29.73R
$$

NEZ011>018-030>034-042>045-010700-
NORTHEAST NEBRASKA

CITY           SKY/WX    TMP DP  RH WIND       PRES   REMARKS
NORFOLK        CLOUDY    62  61  96 SE9       29.74F
6HR MIN TEMP:  58; 6HR MAX TEMP:  66;

ALBION         CLOUDY    62  60  94 SE8       29.74F FOG
BLAIR          TSTM      66  64  93 SE12      29.77R
COLUMBUS *     CLOUDY    63  61  94 SE6       29.75F
FREMONT        CLOUDY    66  63  92 S8        29.77R
TEKAMAH        CLOUDY    64  62  93 E7        29.75F
6HR MIN TEMP:  62; 6HR MAX TEMP:  67;

WAYNE          CLOUDY    62  61  96 SE5       29.75F FOG
$$

NEZ050>053-065>068-078-088>093-010700-
SOUTHEAST NEBRASKA

CITY           SKY/WX    TMP DP  RH WIND       PRES   REMARKS
LINCOLN        TSTM      61  59  93 NE3       29.77S VSB 1
6HR MIN TEMP:  61; 6HR MAX TEMP:  65; 6HR PCP:  1.67;

OMAHA EPPLEY   TSTM      65  61  87 SE17      29.77R FOG
6HR MIN TEMP:  64; 6HR MAX TEMP:  66; 6HR PCP:  0.85;

BEATRICE       CLOUDY    64  63  96 NE5       29.72F
FALLS CITY     LGT RAIN  65  64  97 E8        29.75F FOG
6HR MIN TEMP:  65; 6HR MAX TEMP:  71; 6HR PCP:  0.64;

NEBRASKA CITY  LGT RAIN  65  65 100 E5        29.75F
PLATTSMOUTH      N/A     63  60  92 CALM      29.78R
$$

NEZ044-045-051>053-067-010700-
OMAHA AREA

CITY           SKY/WX    TMP DP  RH WIND       PRES   REMARKS
OMAHA EPPLEY   TSTM      65  61  87 SE17      29.77R FOG
6HR MIN TEMP:  64; 6HR MAX TEMP:  66; 6HR PCP:  0.85;

BLAIR          TSTM      66  64  93 SE12      29.77R
FREMONT        CLOUDY    66  63  92 S8        29.77R
PLATTSMOUTH      N/A     63  60  92 CALM      29.78R
WAHOO          LGT RAIN  64  61  90 SE16      29.77R
$$


USA.gov is the U.S. government's official web portal to all federal, state and local government web resources and services.